www.pogodaiklimat.ru

Погода и климат >> Архив погоды >> Россия >> Бурятия >> Багдарин


АРХИВ ПОГОДЫ в Багдарине

Время (UTC), дата Ветер
(напр.,м/с)
 
Видим.   Явления Облачность Т
(С)
Тd
(С)
f
(%)
Тe
(С)
Тes
(С)
Комфортность P
(гПа)
Po
(гПа)
Тmin
(С)
Tmax
(С)
R
(мм)
R24
(мм)
S
(см)
21 12.05 штиль 0 20 км 5/0
[Ac trans Ci fib]
-8.5 -13.5 67 -9 -9 1013.3 903.0
00 13.05 В 1 20 км 6/0
[Ac trans Ci fib]
+3.9 -13.7 26 +4 +9 1006.9 901.9 -8.6
03 13.05 Ю 3 20 км 8/0
[Ac trans Ci fib]
+13.8 -14.8 12 +13 +21 1000.7 899.7
06 13.05 ЮВ 3 20 км 6/0
[Ac trans Ci fib]
+15.9 -13.3 12 +16 +24 997.3 897.4
09 13.05 Ю 3 20 км 8/0
[Ac trans Ci fib]
+17.0 -12.1 13 +17 +20 995.8 896.4
12 13.05 СЗ 3 20 км 10/3 1000 м
[Sc Ac trans Ci fib]
+12.2 -6.8 26 +11 +11 998.7 897.5 +17.2
15 13.05 С 1 н/о 10/1 1000 м
[Sc Ac trans Ci fib]
+6.3 -6.1 41 +6 +6 1002.1 898.5
18 13.05 СЗ 1 н/о 10/0
[Ac trans Ci fib]
+1.8 -6.2 55 +1 +1 1004.5 899.1
21 13.05 С 1 20 км 10/8 1000 м
[Cb cap Ac trans Ci fib]
+0.7 -5.7 62 -1 -1 1005.3 899.4
00 14.05 В 2 20 км 10/1 1000 м
[Sc Ac lent Ci fib]
+7.1 -3.5 47 +6 +8 1002.6 899.3 -0.4
03 14.05 СВ 2 20 км 8/0
[Ac lent Ci fib]
+12.6 -3.3 33 +12 +23 опасность
простуды
999.5 898.3
06 14.05 В 3
{11}
20 км 10/1 1000 м
[Cu med, cong Ac und Ci fib]
+15.8 -5.0 24 +16 +21 995.7 895.9
09 14.05 В 3 20 км 10/4 1000 м
[Cb cap Ac lent Ci fib]
+16.4 -3.3 26 +16 +18 993.9 894.6
12 14.05 В 5 20 км 10/6 1000 м
[Cb cap Ac trans Ci fib]
+15.5 -2.0 30 +15 +15 993.8 894.2 +17.2
15 14.05 ЮВ 3
{11}
н/о 10/10 1000 м
[Cb cap]
+11.7 +0.9 47 +10 +10 995.0 894.1
18 14.05 ЮВ 1 н/о ливневой дождь 10/10 1000 м
[Cb cap]
+6.8 +4.9 88 +6 +6 997.9 895.1
21 14.05 штиль 0 20 км {ливн. осадки} 10/6 1000 м
[Cb cap Ac trans Ci fib]
+4.5 +3.5 93 +3 +3 997.8 894.2
00 15.05 Ю 1 20 км {ливн. осадки} 10/10 1000 м
[Cb cap]
+5.4 +2.3 80 +4 +4 997.8 894.5 +4.3 3
03 15.05 Ю 2 10 км слаб. ливневой дождь 10/8 600 м
[Cb cap As op]
+4.6 +1.7 81 +2 +2 997.9 894.3
06 15.05 С 4 20 км в посл. час ливневой дождь 10/8 600 м
[Cb cap As op]
+3.7 +2.1 89 -1 -1 995.5 891.8
09 15.05 СЗ 4
{12}
10 км слаб. дождь 10/0 600 м
[As op]
+3.4 +1.6 88 -1 -1 994.0 890.4
12 15.05 СЗ 5 10 км слаб. дождь 10/10 600 м
[Frnb Ns]
+2.4 +0.8 89 -3 -3 993.8 889.8 +6.6 25
15 15.05 СЗ 2
{12}
н/о слаб. дождь 10/10 600 м
[Frnb Ns]
+2.4 +0.7 89 -1 -1 992.7 888.8
18 15.05 С 7-11
{12}
н/о дождь 10/0 600 м
[As op]
+3.8 +1.0 82 -2 -2 989.9 886.8
21 15.05 ЮВ 2
{11}
10 км дождь 10/0 600 м
[As op]
+2.1 +1.4 95 -1 -1 991.7 887.9
00 16.05 СЗ 2 10 км слаб. дождь 10/0 600 м
[As op]
+2.6 +1.9 95 -1 0 993.6 889.7 +1.7 22
03 16.05 СЗ 2 10 км слаб. дождь 10/0
[As op]
+3.1 +1.8 91 0 +3 995.2 891.3
06 16.05 С 3 10 км слаб. дождь 10/0
[As op]
+3.6 +1.6 87 -0 +2 996.4 892.6
09 16.05 С 3 6000 м слаб. дождь 10/0
[As op]
+2.7 +0.8 87 -1 -1 998.6 894.3
12 16.05 С 2 10 км слаб. дождь 10/0 600 м
[As op]
+1.9 +0.2 88 -1 -1 1000.6 895.8 +3.8 14
15 16.05 С 3 н/о {дождь} 10/0
[As op]
+2.3 -0.9 79 -2 -2 1000.6 895.9
18 16.05 С 2 н/о {дождь} 10/10 600 м
[Sc As op]
+2.6 -1.4 75 -0 -0 999.6 895.1
21 16.05 С 3
{10}
20 км 10/6 600 м
[Sc As op]
+2.8 -2.1 70 -1 -1 998.9 894.5
00 17.05 С 5
{11}
20 км 10/6 600 м
[Sc As op]
+4.1 -2.0 64 -1 -0 999.2 895.2 +1.5 0.8
03 17.05 С 6-11
{11}
20 км 10/10 600 м
[Cb cap]
+6.1 -1.4 59 +2 +2 999.3 896.0
06 17.05 СЗ 6-11
{12}
20 км 10/8 600 м
[Cb cap Ac und]
+7.2 -0.7 57 +3 +4 999.8 896.8
09 17.05 С 6-10
{13}
20 км 10/5 1000 м
[Cb cap Ac trans Ci fib]
+6.8 -3.2 49 +3 +3 1001.4 898.1
12 17.05 СЗ 5-10
{12}
20 км 10/8 600 м
[Sc diur, vesp Ac und]
+4.8 -4.9 49 +1 +1 1003.7 899.4 +7.7
15 17.05 СЗ 3
{11}
н/о 10/8 600 м
[Sc diur, vesp Ac und]
+3.0 -4.1 60 -1 -1 1005.8 900.7
18 17.05 СЗ 3 н/о 10/5 600 м
[Sc Ac As]
+2.8 -4.9 57 -1 -1 1006.2 900.9
21 17.05 С 3 20 км 10/0
[Ac As]
+2.8 -5.7 54 -1 -1 1006.3 901.0
00 18.05 С 4 20 км 10/3 1000 м
[Sc Ac trans Ci fib]
+4.9 -5.3 48 +1 +3 1006.4 901.9 +2.7
03 18.05 С 4
{11}
20 км 10/8 1000 м
[Cb cap Ac trans Ci fib]
+7.7 -3.8 44 +5 +6 1006.6 903.0
06 18.05 С 5
{10}
20 км 8/4 1000 м
[Cb cap Ac trans Ci fib]
+9.6 -4.2 37 +7 +10 1006.3 903.5
09 18.05 С 6
{11}
20 км 6/4 1000 м
[Sc Ac trans Ci fib]
+8.7 -4.4 39 +5 +6 1007.7 904.4
12 18.05 С 5-10
{13}
20 км 10/8 1000 м
[Cb cap Ac trans Ci fib]
+5.9 -5.3 44 +2 +2 1010.1 905.6 +10.0
15 18.05 С 5
{11}
н/о 6/4 1000 м
[Sc Ac trans Ci fib]
+3.7 -5.9 49 -1 -1 1012.9 907.2
18 18.05 С 2 н/о 3/0
[Ac lent Ci fib]
+2.4 -6.7 51 -0 -0 1014.6 908.3
21 18.05 СЗ 1 20 км 10/0
[Ac trans Ci fib]
-2.3 -5.5 79 -4 -4 1016.9 908.7
00 19.05 С 3 20 км 8/1 1000 м
[Sc Ac trans Ci fib]
+5.3 -6.4 43 +3 +5 1014.5 909.3 -2.9
03 19.05 С 4 20 км 10/1 1000 м
[Cu hum Ac lent Ci fib]
+8.7 -4.7 38 +6 +11 1012.8 909.0
06 19.05 СЗ 5
{11}
20 км 10/1 1000 м
[Cu hum Ac trans Ci fib]
+8.8 -5.2 37 +6 +9 1013.1 909.2
09 19.05 С 4
{11}
20 км 10/1 1000 м
[Sc Ci fib]
+9.1 -5.8 34 +7 +9 1013.0 909.2
12 19.05 СЗ 3 20 км 6/3 1000 м
[Sc Ac trans Ci fib]
+6.4 -5.2 43 +4 +4 1014.5 909.7 +9.3
15 19.05 З 1 н/о 3/0
[Ac trans Ci fib]
+0.6 -5.0 66 -1 -1 1017.6 910.4
18 19.05 штиль 0 н/о 1/0
[Ci fib]
-3.1 -5.3 85 -4 -4 1019.0 910.2

 

Местоположение метеостанции Багдарин (Бурятия, Россия): широта 54.43 долгота 113.50 высота над уровнем моря 902 м.

В архиве по умолчанию представлена погода в Багдарине за последнюю неделю. Архивные данные за месяц целиком и за предыдущие месяцы, начиная с января 2011 года, Вы можете получить, выбрав интересующий диапазон дат из раскрывающегося списка и нажав кнопку "Ввод!".


*Определитесь, кто Вы:
робот инопланетянин человек

Внимание! Время в таблицах - всемирное. Для получения местного времени необходимо прибавить поправку, которая равна 8 ч.

Смотрите также архив погоды в соседних городах и на ближайших метеорологических станциях:

Погода в Троицком Прииске (Бурятия, Россия) (31 км)
Погода в Баунте (Бурятия, Россия) (97 км)
Погода в Уаките (Бурятия, Россия) (117 км)
Погода в Усть-Джилинде (Бурятия, Россия) (134 км)
Погода в Романовке (Бурятия, Россия) (147 км)
Погода в Тунгокочене (Забайкальский край, Россия) (170 км)
Погода в Телембе (Бурятия, Россия) (187 км)
Погода в Усть-Каренге (Забайкальский край, Россия) (194 км)
Погода в Курумкане (Бурятия, Россия) (208 км)
Погода в Бургени (Забайкальский край, Россия) (223 км)

Пояснения к столбцам:

Ветер - указаны скорость ветра в м/с - средняя за 10 мин, порывы в срок и между сроками (в фигурных скобках) и направление, откуда дует ветер: С - северный, СВ - северо-восточный, В - восточный, ЮВ - юго-восточный, Ю - южный, ЮЗ - юго-западный, З - западный, СЗ - северо-западный.
Видимость - горизонтальная дальность видимости в метрах или километрах. При видимости от 1 до 10 км при отсутствии осадков обычно наблюдается дымка, при ухудшении видимости до 1 км и менее - туман. В сухую погоду видимость может ухудшаться дымом, пылью или мглою.
Явления - указаны атмосферные явления, наблюдавшиеся в срок или в последний час перед сроком; фигурными скобками обозначены явления, наблюдавшиеся между сроками (за 1-3 часа до срока); квадратными скобками обозначены град или гололедные отложения с указанием их диаметра в мм.
Облачность - указаны через наклонную черту общая и нижняя облачность в баллах и высота нижней границы облаков в метрах; квадратными скобками обозначены формы облаков: Ci - перистые, Cs - перисто-слоистые, Cc - перисто-кучевые, Ac - высококучевые, As - высокослоистые, Sc - слоисто-кучевые, Ns - слоисто-дождевые, Cu - кучевые, Cb - кучево-дождевые. Подробнее классификацию облаков см. в Атласе облаков (PDF).
T - Температура воздуха - температура, измеренная на высоте 2 м над землей.
Td - Температура точки росы - температура, при понижении до которой содержащийся в воздухе водяной пар достигнет насыщения.
f - Относительная влажность воздуха - влажноcть воздуха, измеренная на высоте 2 м над землей.
Te - Эффективная температура - температура, которую ощущает одетый по сезону человек в тени. Характеристика душности погоды. При расчете учитывается влияние влажности воздуха и скорости ветра на теплоощущения человека.
Tes - Эффективная температура на солнце - температура, которую ощущает человек, с поправкой на солнечный нагрев. Характеристика знойности погоды. Зависит от высоты солнца над горизонтом, облачности и скорости ветра. Ночью, в пасмурную погоду, а также при ветре 12 м/с и более поправка равна нулю.
P - Атмосферное давление - приведенное к уровню моря атмосферное давление.
Po - Атмосферное давление - измеренное на уровне метеостанции атмосферное давление.
Tmin - Минимальная температура - минимум температуры воздуха на высоте 2 м над землей.
Tmax - Максимальная температура - максимум температуры воздуха на высоте 2 м над землей.
R - Количество осадков - Количество выпавших осадков за период времени, мм. При наведении курсора мыши на число - период времени, за который выпало указанное количество осадков.
R24 - Количество осадков - Количество выпавших осадков за 24 часа, мм.
S - Снежный покров - Высота снежного покрова, см. При наведении курсора мыши на число - состояние снежного покрова и степень покрытия местности в баллах.